Location: ???????
(55.2903°N, 39.1554°E)
Time: 12:34:45
(UTC+00:00)

ACS3 Solar Sail - Visible Passes

Search period start: 08 May 2026 00:00
Search period end: 18 May 2026 00:00
Orbit: 890 x 951 km, 97.2° (Epoch: 7 May)

Date Brightness Start Highest point End Pass type
(mag) Time Alt. Az. Time Alt. Az. Time Alt. Az.
8 May 3.0 00:08:19 10° N 00:13:17 28° WNW 00:18:17 10° WSW visible
8 May 3.5 20:52:32 10° NE 20:56:50 20° E 21:00:37 12° SE visible
8 May 1.7 22:34:01 10° NNE 22:40:03 86° ESE 22:44:07 22° SSW visible
9 May 3.2 00:17:01 10° N 00:21:47 25° NW 00:26:34 10° WSW visible
9 May 3.3 21:00:56 10° NNE 21:05:36 23° E 21:09:25 13° SE visible
9 May 1.7 22:42:39 10° NNE 22:48:41 84° WNW 22:52:55 21° SSW visible
10 May 3.3 00:25:47 10° N 00:30:18 23° NW 00:34:49 10° WSW visible
10 May 3.2 21:09:24 10° NNE 21:14:23 26° E 21:18:14 15° SE visible
10 May 1.8 22:51:19 10° N 22:57:19 74° WNW 23:01:44 19° SSW visible
11 May 3.4 00:34:34 10° N 00:38:48 21° NW 00:43:02 10° W visible
11 May 3.0 21:17:56 10° NNE 21:23:10 30° E 21:27:04 16° SE visible
11 May 1.9 23:00:01 10° N 23:05:58 66° WNW 23:10:33 18° SSW visible
12 May 2.8 21:26:30 10° NNE 21:31:57 34° E 21:35:55 17° SSE visible
12 May 2.1 23:08:43 10° N 23:14:36 58° WNW 23:19:24 16° SW visible
13 May 2.6 21:35:06 10° NNE 21:40:44 40° E 21:44:46 18° SSE visible
13 May 2.2 23:17:28 10° N 23:23:15 51° WNW 23:28:16 14° SW visible
14 May 2.4 21:43:45 10° NNE 21:49:32 45° E 21:53:39 19° SSE visible
14 May 2.4 23:26:14 10° N 23:31:55 45° WNW 23:37:08 12° SW visible
15 May 3.9 20:12:42 10° ENE 20:14:31 11° ENE 20:16:19 10° E visible
15 May 2.2 21:52:26 10° NNE 21:58:19 52° E 22:02:32 19° SSE visible
15 May 2.6 23:35:02 10° N 23:40:34 39° WNW 23:46:02 10° SW visible
16 May 3.8 20:20:39 10° NE 20:23:28 13° ENE 20:26:17 10° ESE visible
16 May 2.1 22:01:08 10° NNE 22:07:07 60° E 22:11:27 19° S visible
16 May 2.8 23:43:52 10° N 23:49:14 35° WNW 23:54:36 10° WSW visible
17 May 3.8 20:28:55 10° NE 20:32:26 16° E 20:35:56 10° ESE visible
17 May 1.9 22:09:53 10° NNE 22:15:56 69° E 22:20:22 19° S visible
